Location: Lane
(33.5226°N, 79.8788°W)
Time: 05:37:43
(UTC+00:00)

Tiros 1 - Pass Details

Date: 05 October 2022
Orbit: 629 x 662 km, 48.4° (Epoch: 09 December)

Event Time Altitude Azimuth Distance (km) Brightness Sun altitude
Exits shadow 09:02:55 29° 11° (N) 1,179 8.6 -28.5°
Maximum altitude 09:03:37 31° 28° (NNE) 1,144 8.7 -28.4°
Drops below altitude 10° 09:07:47 10° 90° (E) 2,038 10.6 -27.5°
Sets 09:10:20 0° 101° (E) 2,939 11.5 -27.0°
